Regional Weather Roundup
Issued by NWS Charleston, SC

Current Version | Previous Version | Graphics & Text | Print | Product List | Glossary On
Versions: 1 2 3 4 5 6 7 8 9 10 11 12 13 14 15 16 17 18 19 20 21 22 23 24 25 26 27 28 29 30 31 32 33 34 35 36 37 38 39 40 41 42 43 44 45 46 47 48 49 50
000
ASUS42 KCHS 312312
RWRCHS

REGIONAL WEATHER ROUNDUP
NATIONAL WEATHER SERVICE CHARLESTON SC
700 PM EDT MON AUG 31 2015

NOTE: "FAIR" INDICATES FEW OR NO CLOUDS BELOW 12,000 FEET WITH NO
SIGNIFICANT WEATHER AND/OR OBSTRUCTIONS TO VISIBILITY.

NOT ALL STATIONS ARE QUALITY CONTROLLED BY THE NATIONAL
WEATHER SERVICE. USE DATA WITH CAUTION...ESPECIALLY
DEWPOINT OBSERVATIONS.

SCZ027-030-031-034>040-042>050-010000-
...SOUTHEAST SOUTH CAROLINA...

CITY           SKY/WX    TMP DP  RH WIND       PRES   REMARKS
N CHARLESTON   PTCLDY    84  73  69 N6        30.03R HX  90
WATERFRONT PRK   N/A     84  78  82 VRB3      30.01R HX  95
MOUNT PLEASANT FAIR      82  75  78 CALM      30.03S
JOHNS ISLAND   CLOUDY    84  77  79 S5        30.03S HX  94
PINOPOLIS        N/A     90  73  58 VRB2      29.97S HX  98
MONCKS CORNER  FAIR      84  72  65 CALM      30.03S
SUMMERVILLE    FAIR      84  72  65 W3        30.05R
BEAUFORT MCAS  PTCLDY    83  71  67 NW5       30.05R
BEAUFORT ARPT  FAIR      82  73  74 NW6       30.04S
HILTON HEAD IS MOCLDY    81  73  78 CALM      30.06R
WALTERBORO     CLEAR     84  70  61 W5        30.06R
ALLENDALE      FAIR      82  70  65 CALM      30.05S

...SOUTHERN MIDLANDS AND PEE DEE...

CITY           SKY/WX    TMP DP  RH WIND       PRES   REMARKS
GEORGETOWN     NOT AVBL
KINGSTREE      NOT AVBL
ORANGEBURG     CLEAR     83  71  67 SW6       30.04S
BARNWELL       FAIR      84  72  65 CALM      30.06S
AIKEN          FAIR      81  64  57 SW7       30.10R
MANNING        FAIR      81  70  69 CALM      30.04R
COLUMBIA       PTCLDY    87  67  51 W6        30.03S HX  90
SUMTER         PTCLDY    84  69  61 E5        30.02S
FLORENCE       CLEAR     81  70  69 N9        30.04S
MYRTLE BEACH   MOCLDY    81  75  83 CALM      30.04R
N MYRTLE BEACH LGT RAIN  78  75  90 N6        30.02S

$$

GAZ063-065-086>088-099>101-113>116-118-119-134>141-150-010000-
...SOUTHEAST GEORGIA...

CITY           SKY/WX    TMP DP  RH WIND       PRES   REMARKS
SAVANNAH ARPT  MOCLDY    83  72  69 NW8       30.05S
HUNTER AAF     CLEAR     85  76  73 VRB1      30.02S HX  94
FORT STEWART   SUNNY     84  73  69 N2        30.03S HX  91
STATESBORO     SUNNY     82  75  79 CALM      30.06S
SYLVANIA       PTCLDY    83  75  76 CALM      30.07S HX  90
CLAXTON        NOT AVBL

...CSRA...CENTRAL AND FAR SOUTHEAST GEORGIA...

CITY           SKY/WX    TMP DP  RH WIND       PRES   REMARKS
THOMSON        SUNNY     84  73  67 CALM      30.11S HX  90
AUGUSTA-BUSH   SUNNY     83  70  64 E3        30.05R
AUGUSTA-DANIEL MOSUNNY   94  69  44 CALM      30.07S HX  99
SWAINSBORO     FAIR      84  68  58 CALM      30.07S
VIDALIA        SUNNY     81  72  74 E5        30.07R
EASTMAN        FAIR      85  72  65 E6        30.08R HX  91
HAZLEHURST     FAIR      85  72  63 E6        30.05R HX  91
ALMA           SUNNY     87  71  58 N5        30.04S HX  93
WAYCROSS       SUNNY     90  74  59 NE5       30.04R HX  98
JESUP          FAIR      88  73  62 E3        30.04S HX  96
BAXLEY         FAIR      86  72  62 NE6       30.05R HX  92
BRUNSWICK      PTCLDY    82  75  78 SE5       30.05S
SAINT SIMONS   PTCLDY    82  75  79 E10       30.05R

$$

SCZ027-028-034-036>038-045-046-048>050-GAZ119-141-010000-
...LAKE AND SUPPLEMENTAL COASTAL OBSERVATIONS...

STATION/POSITION TIME  TEMP    WIND        PRES    WAVE   SWELL
                       AIR SEA DIR/SP/G            HT/PER HT/PER/DIR
                 (UTC) (F)     (DEG/KT/KT) (MB)    (FT/S) (FT/S/D)
UPR LAKE MARION  NOT AVBL
WINYAH BAY       NOT AVBL
LAKE MURRAY      2200   84     210/  7/  8 1016.6S
ACE BASIN NERRS  NOT AVBL
FORT PULASKI     2200   84 83  290/  3/  4 1017.7S
SAPELO ISLAND    2200   83     100/  5     1017.0S

$$

ANZ835-935-AMZ111-154-330-350-352-354-370-450-454-472-010000-
...C-MAN AND BUOY OBSERVATIONS...

STATION/POSITION TIME  TEMP    WIND        PRES    WAVE   SWELL
                       AIR SEA DIR/SP/G            HT/PER HT/PER/DIR
                 (UTC) (F)     (DEG/KT/KT) (MB)    (FT/S) (FT/S/D)
BUOY 41004       2250   82 83  230/ 10/ 12 1016.4F   4/ 8   3/ 8
BUOY 41008       2250   83 85  110/  6/  8 1017.6F   3/ 8   3/120/ 8
FOLLY BEACH CMAN 2200   82     220/  9/ 11 1017.0F
CAPERS NEARSHORE 2208   85     310/  6/ 10 1016.7F
FRIPP NEARSHORE  2200   85     230/  6/  8 1016.7F


STATION/POSITION TIME  TEMP    WIND        PRES    WAVE   SWELL
                       AIR SEA DIR/SP/G            HT/PER HT/PER/DIR
                 (UTC) (F)     (DEG/KT/KT) (MB)    (FT/S) (FT/S/D)
5E ST. MARYS GA  2221      86                N/A     3/ 8
FRYING PAN BUOY  2250   80 81  210/ 16/ 17 1016.9R   4/ 5   2/150/ 8
BUOY 41025       2250   80 84  160/ 14/ 16 1018.4F   3/ 9   3/120/ 9
CAPE LOOKOUT NC  2200   78     120/ 11/ 12 1017.6F
BUOY 41002       2250   84 84  210/ 12/ 14 1018.8R   4/ 6   3/200/ 6
BUOY 41010       2220   85 86  160/  8/  8 1018.0F
ST AUGUSTINE FL  2300   82 85  130/ 11/ 12 1017.9S


$$


USA.gov is the U.S. government's official web portal to all federal, state and local government web resources and services.